Time,TemperatureF,DewpointF,PressureIn,WindDirection,WindDirectionDegrees,WindSpeedMPH,WindSpeedGustMPH,Humidity,HourlyPrecipIn,Conditions,Clouds,dailyrainin,SoftwareType,DateUTC
2013-01-27 00:01:00,31.0,16.0,-100.00,ENE,75,6.0,12.0,53,0.00,,,-99.99,,2013-01-27 06:01:00,
2013-01-27 00:11:00,31.0,17.0,-100.00,East,80,5.0,13.0,53,0.00,,,-99.99,,2013-01-27 06:11:00,
2013-01-27 00:21:00,31.0,17.0,-100.00,East,85,5.0,11.0,53,0.00,,,-99.99,,2013-01-27 06:21:00,
2013-01-27 00:32:00,31.0,17.0,-100.00,ENE,75,6.0,12.0,53,0.00,,,-99.99,,2013-01-27 06:32:00,
2013-01-27 00:41:00,31.0,17.0,-100.00,ENE,75,7.0,12.0,53,0.00,,,-99.99,,2013-01-27 06:41:00,
2013-01-27 00:51:00,32.0,17.0,-100.00,East,80,7.0,12.0,53,0.00,,,-99.99,,2013-01-27 06:51:00,
2013-01-27 01:01:00,32.0,17.0,-100.00,East,80,7.0,12.0,53,0.00,,,-99.99,,2013-01-27 07:01:00,
2013-01-27 01:13:00,32.0,17.0,-100.00,East,80,6.0,13.0,53,0.00,,,-99.99,,2013-01-27 07:13:00,
2013-01-27 01:21:00,32.0,17.0,-100.00,ENE,75,7.0,14.0,53,0.00,,,-99.99,,2013-01-27 07:21:00,
2013-01-27 01:31:00,32.0,17.0,-100.00,ENE,70,4.0,11.0,53,0.00,,,-99.99,,2013-01-27 07:31:00,
2013-01-27 01:41:00,32.0,17.0,-100.00,ENE,70,4.0,11.0,53,0.00,,,-99.99,,2013-01-27 07:41:00,
2013-01-27 01:51:00,32.0,17.0,-100.00,ENE,75,6.0,12.0,53,0.00,,,-99.99,,2013-01-27 07:51:00,
2013-01-27 02:01:00,32.0,17.0,-100.00,ENE,75,6.0,12.0,53,0.00,,,-99.99,,2013-01-27 08:01:00,
2013-01-27 02:11:00,32.0,17.0,-100.00,ENE,75,6.0,11.0,54,0.00,,,-99.99,,2013-01-27 08:11:00,
2013-01-27 02:22:00,32.0,17.0,-100.00,ENE,75,6.0,11.0,54,0.00,,,-99.99,,2013-01-27 08:22:00,
2013-01-27 02:31:00,33.0,18.0,-100.00,East,85,7.0,12.0,54,0.00,,,-99.99,,2013-01-27 08:31:00,
2013-01-27 02:41:00,33.0,18.0,-100.00,East,85,7.0,12.0,54,0.00,,,-99.99,,2013-01-27 08:41:00,
2013-01-27 02:52:00,34.0,19.0,-100.00,ENE,75,7.0,13.0,54,0.00,,,-99.99,,2013-01-27 08:52:00,
2013-01-27 03:02:00,34.0,19.0,-100.00,ENE,75,7.0,13.0,54,0.00,,,-99.99,,2013-01-27 09:02:00,
2013-01-27 03:11:00,34.0,19.0,-100.00,East,80,6.0,12.0,53,0.00,,,-99.99,,2013-01-27 09:11:00,
2013-01-27 03:21:00,34.0,19.0,-100.00,East,80,5.0,12.0,53,0.00,,,-99.99,,2013-01-27 09:21:00,
2013-01-27 03:32:00,34.0,19.0,-100.00,ENE,75,6.0,10.0,53,0.00,,,-99.99,,2013-01-27 09:32:00,
2013-01-27 03:41:00,34.0,19.0,-100.00,ENE,75,6.0,10.0,53,0.00,,,-99.99,,2013-01-27 09:41:00,
2013-01-27 03:51:00,35.0,20.0,-100.00,ENE,75,7.0,14.0,53,0.00,,,-99.99,,2013-01-27 09:51:00,
2013-01-27 04:01:00,35.0,20.0,-100.00,ENE,75,7.0,14.0,53,0.00,,,-99.99,,2013-01-27 10:01:00,
2013-01-27 04:11:00,35.0,20.0,-100.00,East,80,6.0,14.0,53,0.00,,,-99.99,,2013-01-27 10:11:00,
2013-01-27 04:21:00,35.0,20.0,-100.00,East,80,6.0,12.0,53,0.00,,,-99.99,,2013-01-27 10:21:00,
2013-01-27 04:31:00,35.0,20.0,-100.00,East,80,8.0,16.0,53,0.00,,,-99.99,,2013-01-27 10:31:00,
2013-01-27 04:41:00,35.0,20.0,-100.00,ENE,75,6.0,13.0,53,0.82,,,-99.99,,2013-01-27 10:41:00,
2013-01-27 04:51:00,34.0,22.0,-100.00,ENE,70,7.0,12.0,59,1.23,,,-99.99,,2013-01-27 10:51:00,
2013-01-27 05:01:00,34.0,22.0,-100.00,ENE,70,7.0,12.0,59,1.23,,,-99.99,,2013-01-27 11:01:00,
2013-01-27 05:11:00,33.0,23.0,-100.00,East,90,6.0,11.0,65,1.20,,,-99.99,,2013-01-27 11:11:00,
2013-01-27 05:21:00,33.0,24.0,-100.00,East,80,6.0,11.0,69,1.22,,,-99.99,,2013-01-27 11:21:00,
2013-01-27 05:32:00,33.0,27.0,-100.00,East,80,6.0,14.0,80,1.42,,,-99.99,,2013-01-27 11:32:00,
2013-01-27 05:42:00,33.0,27.0,-100.00,East,80,6.0,14.0,80,1.42,,,-99.99,,2013-01-27 11:42:00,
2013-01-27 05:52:00,32.0,29.0,-100.00,East,80,6.0,11.0,86,1.56,,,-99.99,,2013-01-27 11:52:00,
2013-01-27 06:02:00,32.0,29.0,-100.00,East,80,6.0,11.0,86,1.56,,,-99.99,,2013-01-27 12:02:00,
2013-01-27 06:11:00,32.0,29.0,-100.00,ENE,75,7.0,11.0,89,2.13,,,-99.99,,2013-01-27 12:11:00,
2013-01-27 06:21:00,32.0,30.0,-100.00,ENE,70,7.0,12.0,90,1.40,,,-99.99,,2013-01-27 12:21:00,
2013-01-27 06:32:00,33.0,31.0,-100.00,East,80,6.0,10.0,94,1.13,,,-99.99,,2013-01-27 12:32:00,
2013-01-27 06:42:00,33.0,31.0,-100.00,East,80,6.0,10.0,94,1.13,,,-99.99,,2013-01-27 12:42:00,
2013-01-27 06:52:00,33.0,32.0,-100.00,ENE,75,4.0,11.0,96,1.60,,,-99.99,,2013-01-27 12:52:00,
2013-01-27 07:02:00,33.0,32.0,-100.00,ENE,75,4.0,11.0,96,1.60,,,-99.99,,2013-01-27 13:02:00,
2013-01-27 07:11:00,33.0,32.0,-100.00,ENE,70,6.0,11.0,97,1.02,,,-99.99,,2013-01-27 13:11:00,
2013-01-27 07:22:00,33.0,32.0,-100.00,ESE,105,5.0,11.0,98,1.35,,,-99.99,,2013-01-27 13:22:00,
2013-01-27 07:32:00,33.0,32.0,-100.00,ENE,65,5.0,10.0,98,0.84,,,-99.99,,2013-01-27 13:32:00,
2013-01-27 07:42:00,33.0,33.0,-100.00,ENE,65,6.0,12.0,99,0.00,,,-99.99,,2013-01-27 13:42:00,
2013-01-27 07:52:00,33.0,33.0,-100.00,ENE,70,5.0,10.0,99,0.00,,,-99.99,,2013-01-27 13:52:00,
2013-01-27 08:02:00,33.0,33.0,-100.00,ENE,70,5.0,10.0,99,0.00,,,-99.99,,2013-01-27 14:02:00,
2013-01-27 08:11:00,33.0,33.0,-100.00,ENE,70,5.0,11.0,99,0.00,,,-99.99,,2013-01-27 14:11:00,
2013-01-27 08:22:00,33.0,33.0,-100.00,ENE,60,7.0,12.0,99,0.00,,,-99.99,,2013-01-27 14:22:00,
2013-01-27 08:32:00,33.0,33.0,-100.00,ENE,70,6.0,11.0,99,0.00,,,-99.99,,2013-01-27 14:32:00,
2013-01-27 08:42:00,33.0,33.0,-100.00,ENE,65,5.0,9.0,99,0.00,,,-99.99,,2013-01-27 14:42:00,
2013-01-27 08:52:00,33.0,33.0,-100.00,ENE,70,5.0,11.0,99,0.00,,,-99.99,,2013-01-27 14:52:00,
2013-01-27 09:02:00,33.0,33.0,-100.00,ENE,70,5.0,11.0,99,0.00,,,-99.99,,2013-01-27 15:02:00,
2013-01-27 09:11:00,33.0,33.0,-100.00,ENE,70,6.0,11.0,99,1.09,,,-99.99,,2013-01-27 15:11:00,
2013-01-27 09:22:00,33.0,33.0,-100.00,ENE,75,7.0,15.0,99,1.11,,,-99.99,,2013-01-27 15:22:00,
2013-01-27 09:32:00,33.0,33.0,-100.00,ENE,60,8.0,13.0,99,1.81,,,-99.99,,2013-01-27 15:32:00,
2013-01-27 09:42:00,33.0,33.0,-100.00,ENE,70,6.0,14.0,99,0.00,,,-99.99,,2013-01-27 15:42:00,
2013-01-27 09:52:00,33.0,33.0,-100.00,ENE,70,8.0,14.0,99,0.00,,,-99.99,,2013-01-27 15:52:00,
2013-01-27 10:02:00,33.0,33.0,-100.00,ENE,70,8.0,14.0,99,0.00,,,-99.99,,2013-01-27 16:02:00,
2013-01-27 10:11:00,34.0,34.0,-100.00,ENE,65,6.0,14.0,99,0.00,,,-99.99,,2013-01-27 16:11:00,
2013-01-27 10:21:00,34.0,34.0,-100.00,ENE,65,7.0,13.0,99,1.15,,,-99.99,,2013-01-27 16:21:00,
2013-01-27 10:32:00,34.0,34.0,-100.00,ENE,65,7.0,12.0,99,0.00,,,-99.99,,2013-01-27 16:32:00,
2013-01-27 10:42:00,34.0,34.0,-100.00,East,80,7.0,12.0,99,0.00,,,-99.99,,2013-01-27 16:42:00,
2013-01-27 10:52:00,34.0,34.0,-100.00,ENE,70,9.0,15.0,99,0.00,,,-99.99,,2013-01-27 16:52:00,
2013-01-27 11:02:00,34.0,34.0,-100.00,ENE,70,9.0,15.0,99,0.00,,,-99.99,,2013-01-27 17:02:00,
2013-01-27 11:12:00,34.0,34.0,-100.00,ENE,60,7.0,15.0,99,0.00,,,-99.99,,2013-01-27 17:12:00,
2013-01-27 11:22:00,34.0,34.0,-100.00,ENE,70,4.0,13.0,99,0.00,,,-99.99,,2013-01-27 17:22:00,
2013-01-27 11:32:00,34.0,34.0,-100.00,ENE,65,9.0,16.0,99,0.00,,,-99.99,,2013-01-27 17:32:00,
2013-01-27 11:42:00,34.0,34.0,-100.00,ENE,65,9.0,14.0,99,0.00,,,-99.99,,2013-01-27 17:42:00,
2013-01-27 11:52:00,34.0,34.0,-100.00,ENE,70,10.0,15.0,99,0.00,,,-99.99,,2013-01-27 17:52:00,
2013-01-27 12:02:00,34.0,34.0,-100.00,ENE,70,10.0,15.0,99,0.00,,,-99.99,,2013-01-27 18:02:00,
2013-01-27 12:11:00,35.0,35.0,-100.00,ENE,65,9.0,14.0,99,0.00,,,-99.99,,2013-01-27 18:11:00,
2013-01-27 12:22:00,35.0,35.0,-100.00,ENE,65,9.0,16.0,99,0.00,,,-99.99,,2013-01-27 18:22:00,
2013-01-27 12:32:00,35.0,35.0,-100.00,ENE,65,9.0,15.0,99,0.00,,,-99.99,,2013-01-27 18:32:00,
2013-01-27 12:42:00,35.0,35.0,-100.00,East,80,9.0,14.0,99,0.00,,,-99.99,,2013-01-27 18:42:00,
2013-01-27 12:52:00,35.0,35.0,-100.00,ENE,75,7.0,17.0,99,0.00,,,-99.99,,2013-01-27 18:52:00,
2013-01-27 13:02:00,35.0,35.0,-100.00,ENE,75,7.0,17.0,99,0.00,,,-99.99,,2013-01-27 19:02:00,
2013-01-27 13:11:00,35.0,35.0,-100.00,ENE,70,9.0,15.0,99,0.00,,,-99.99,,2013-01-27 19:11:00,
2013-01-27 13:22:00,36.0,36.0,-100.00,ENE,70,7.0,16.0,99,0.00,,,-99.99,,2013-01-27 19:22:00,
2013-01-27 13:32:00,36.0,36.0,-100.00,ENE,70,7.0,14.0,99,0.00,,,-99.99,,2013-01-27 19:32:00,
2013-01-27 13:41:00,36.0,36.0,-100.00,ENE,75,7.0,14.0,99,0.00,,,-99.99,,2013-01-27 19:41:00,
2013-01-27 13:51:00,36.0,36.0,-100.00,ENE,70,7.0,12.0,99,0.00,,,-99.99,,2013-01-27 19:51:00,
2013-01-27 14:02:00,36.0,36.0,-100.00,ENE,70,7.0,12.0,99,0.00,,,-99.99,,2013-01-27 20:02:00,
2013-01-27 14:11:00,36.0,36.0,-100.00,ENE,70,5.0,13.0,99,0.00,,,-99.99,,2013-01-27 20:11:00,
2013-01-27 14:22:00,36.0,36.0,-100.00,East,80,6.0,10.0,99,0.00,,,-99.99,,2013-01-27 20:22:00,
2013-01-27 14:32:00,36.0,36.0,-100.00,ENE,70,6.0,14.0,99,0.00,,,-99.99,,2013-01-27 20:32:00,
2013-01-27 14:42:00,37.0,37.0,-100.00,ENE,70,6.0,11.0,99,0.00,,,-99.99,,2013-01-27 20:42:00,
2013-01-27 14:52:00,37.0,37.0,-100.00,ENE,70,6.0,10.0,99,0.00,,,-99.99,,2013-01-27 20:52:00,
2013-01-27 15:02:00,37.0,37.0,-100.00,ENE,70,6.0,10.0,99,0.00,,,-99.99,,2013-01-27 21:02:00,
2013-01-27 15:12:00,37.0,37.0,-100.00,ENE,75,7.0,11.0,99,0.00,,,-99.99,,2013-01-27 21:12:00,
2013-01-27 15:22:00,37.0,37.0,-100.00,ENE,65,6.0,11.0,99,0.00,,,-99.99,,2013-01-27 21:22:00,
2013-01-27 15:33:00,37.0,37.0,-100.00,ENE,65,4.0,11.0,99,0.00,,,-99.99,,2013-01-27 21:33:00,
2013-01-27 15:42:00,37.0,37.0,-100.00,ENE,65,4.0,11.0,99,0.00,,,-99.99,,2013-01-27 21:42:00,
2013-01-27 15:52:00,37.0,37.0,-100.00,ENE,75,4.0,9.0,99,0.00,,,-99.99,,2013-01-27 21:52:00,
2013-01-27 16:02:00,37.0,37.0,-100.00,ENE,75,4.0,9.0,99,0.00,,,-99.99,,2013-01-27 22:02:00,
2013-01-27 16:11:00,37.0,37.0,-100.00,ENE,70,4.0,7.0,99,0.00,,,-99.99,,2013-01-27 22:11:00,
2013-01-27 16:22:00,38.0,38.0,-100.00,ENE,65,4.0,7.0,99,0.00,,,-99.99,,2013-01-27 22:22:00,
2013-01-27 16:32:00,38.0,38.0,-100.00,ENE,65,4.0,7.0,99,0.00,,,-99.99,,2013-01-27 22:32:00,
2013-01-27 16:42:00,38.0,38.0,-100.00,ENE,70,5.0,7.0,99,0.00,,,-99.99,,2013-01-27 22:42:00,
2013-01-27 16:52:00,38.0,38.0,-100.00,ENE,70,5.0,7.0,99,0.00,,,-99.99,,2013-01-27 22:52:00,
2013-01-27 17:02:00,38.0,38.0,-100.00,ENE,70,5.0,7.0,99,0.00,,,-99.99,,2013-01-27 23:02:00,
2013-01-27 17:12:00,38.0,38.0,-100.00,ENE,65,4.0,7.0,99,0.00,,,-99.99,,2013-01-27 23:12:00,
2013-01-27 17:21:00,38.0,38.0,-100.00,ENE,65,5.0,8.0,99,0.00,,,-99.99,,2013-01-27 23:21:00,
2013-01-27 17:32:00,38.0,38.0,-100.00,ENE,60,6.0,7.0,99,0.00,,,-99.99,,2013-01-27 23:32:00,
2013-01-27 17:41:00,38.0,38.0,-100.00,ENE,60,5.0,7.0,99,0.00,,,-99.99,,2013-01-27 23:41:00,
2013-01-27 17:52:00,38.0,38.0,-100.00,ENE,70,4.0,7.0,99,0.00,,,-99.99,,2013-01-27 23:52:00,
2013-01-27 18:02:00,38.0,38.0,-100.00,ENE,70,4.0,7.0,99,0.00,,,-99.99,,2013-01-28 00:02:00,
2013-01-27 18:11:00,38.0,38.0,-100.00,ENE,65,5.0,9.0,99,0.00,,,-99.99,,2013-01-28 00:11:00,
2013-01-27 18:21:00,38.0,38.0,-100.00,ENE,65,5.0,9.0,99,0.00,,,-99.99,,2013-01-28 00:21:00,
2013-01-27 18:32:00,38.0,38.0,-100.00,ENE,60,6.0,7.0,99,0.00,,,-99.99,,2013-01-28 00:32:00,
2013-01-27 18:42:00,38.0,38.0,-100.00,ENE,60,5.0,7.0,99,0.00,,,-99.99,,2013-01-28 00:42:00,
2013-01-27 18:51:00,37.0,37.0,-100.00,NE,55,5.0,6.0,99,0.00,,,-99.99,,2013-01-28 00:51:00,
2013-01-27 19:01:00,37.0,37.0,-100.00,NE,55,5.0,6.0,99,0.00,,,-99.99,,2013-01-28 01:01:00,
2013-01-27 19:11:00,37.0,37.0,-100.00,ENE,60,5.0,6.0,99,0.00,,,-99.99,,2013-01-28 01:11:00,
2013-01-27 19:22:00,37.0,37.0,-100.00,ENE,60,4.0,6.0,99,0.01,,,-99.99,,2013-01-28 01:22:00,
2013-01-27 19:32:00,37.0,37.0,-100.00,ENE,65,4.0,6.0,99,0.00,,,-99.99,,2013-01-28 01:32:00,
2013-01-27 19:42:00,38.0,38.0,-100.00,East,85,2.0,4.0,99,0.00,,,-99.99,,2013-01-28 01:42:00,
2013-01-27 19:51:00,38.0,38.0,-100.00,ENE,70,3.0,4.0,99,0.00,,,-99.99,,2013-01-28 01:51:00,
2013-01-27 20:02:00,38.0,38.0,-100.00,ENE,70,3.0,4.0,99,0.00,,,-99.99,,2013-01-28 02:02:00,
2013-01-27 20:11:00,38.0,38.0,-100.00,ENE,70,2.0,4.0,99,0.01,,,-99.99,,2013-01-28 02:11:00,
2013-01-27 20:22:00,39.0,38.0,-100.00,ENE,65,3.0,4.0,99,0.00,,,-99.99,,2013-01-28 02:22:00,
2013-01-27 20:32:00,38.0,38.0,-100.00,ENE,70,1.0,4.0,99,0.00,,,-99.99,,2013-01-28 02:32:00,
2013-01-27 20:42:00,38.0,38.0,-100.00,NE,55,0.0,2.0,99,0.81,,,-99.99,,2013-01-28 02:42:00,
2013-01-27 20:52:00,37.0,37.0,-100.00,NE,50,2.0,2.0,99,0.00,,,-99.99,,2013-01-28 02:52:00,
2013-01-27 21:02:00,37.0,37.0,-100.00,NE,50,2.0,2.0,99,0.00,,,-99.99,,2013-01-28 03:02:00,
2013-01-27 21:11:00,37.0,37.0,-100.00,NE,40,2.0,2.0,99,0.47,,,-99.99,,2013-01-28 03:11:00,
2013-01-27 21:21:00,37.0,37.0,-100.00,NNE,15,2.0,3.0,99,0.00,,,-99.99,,2013-01-28 03:21:00,
2013-01-27 21:32:00,37.0,37.0,-100.00,NE,45,2.0,3.0,99,0.00,,,-99.99,,2013-01-28 03:32:00,
2013-01-27 21:41:00,37.0,37.0,-100.00,NE,45,2.0,3.0,99,0.00,,,-99.99,,2013-01-28 03:41:00,
2013-01-27 21:52:00,38.0,38.0,-100.00,North,10,1.0,2.0,99,0.43,,,-99.99,,2013-01-28 03:52:00,
2013-01-27 22:02:00,38.0,38.0,-100.00,North,10,1.0,2.0,99,0.43,,,-99.99,,2013-01-28 04:02:00,
2013-01-27 22:11:00,37.0,37.0,-100.00,South,185,1.0,2.0,99,0.00,,,-99.99,,2013-01-28 04:11:00,
2013-01-27 22:21:00,37.0,37.0,-100.00,South,185,1.0,1.0,99,0.00,,,-99.99,,2013-01-28 04:21:00,
2013-01-27 22:32:00,38.0,38.0,-100.00,South,175,0.0,3.0,99,0.00,,,-99.99,,2013-01-28 04:32:00,
2013-01-27 22:41:00,38.0,38.0,-100.00,South,175,0.0,3.0,99,0.00,,,-99.99,,2013-01-28 04:41:00,
2013-01-27 22:52:00,38.0,38.0,-100.00,East,100,0.0,1.0,99,0.00,,,-99.99,,2013-01-28 04:52:00,
2013-01-27 23:03:00,38.0,38.0,-100.00,East,100,0.0,1.0,99,0.00,,,-99.99,,2013-01-28 05:03:00,
2013-01-27 23:11:00,38.0,38.0,-100.00,NNE,25,1.0,2.0,99,0.00,,,-99.99,,2013-01-28 05:11:00,
2013-01-27 23:21:00,38.0,38.0,-100.00,ESE,120,6.0,7.0,99,0.00,,,-99.99,,2013-01-28 05:21:00,
2013-01-27 23:32:00,37.0,37.0,-100.00,South,185,7.0,12.0,99,0.00,,,-99.99,,2013-01-28 05:32:00,
2013-01-27 23:41:00,37.0,37.0,-100.00,South,185,7.0,12.0,99,0.00,,,-99.99,,2013-01-28 05:41:00,
2013-01-27 23:52:00,36.0,36.0,-100.00,East,95,7.0,9.0,99,0.00,,,-99.99,,2013-01-28 05:52:00,